Location: Castellar
(41.6139°N, 2.0868°E)
Time: 11:05:34
(UTC+00:00)

Daily predictions for brighter satellites

Satellite Brightness Start Highest point End
(mag) Time Altitude Azimuth Time Altitude Azimuth Time Altitude Azimuth
Cosmos 1697 Rocket 3.0 16:42:15 10° NNW 16:47:38 44° ENE 16:52:58 10° SE
NOAA 6 4.4 16:43:20 10° SE 16:48:11 43° ENE 16:53:01 10° N
Cosmos 2221 3.1 16:45:48 10° SSW 16:50:00 60° W 16:54:16 10° N
Sich 1 4.0 16:47:32 10° NNE 16:51:09 26° ENE 16:54:46 10° SE
Cosmos 1980 Rocket 3.1 16:47:00 10° N 16:51:44 26° NE 16:56:26 10° ESE
Cosmos 1805 Rocket 4.1 16:49:14 10° N 16:53:13 34° ENE 16:57:10 10° SE
Cosmos 2369 4.3 16:48:36 10° N 16:53:48 34° ENE 16:58:57 10° ESE
Cosmos 1842 Rocket 4.1 16:50:27 10° SSW 16:54:51 64° W 16:59:20 10° N
USA 234 3.5 16:48:56 10° ESE 16:55:13 52° NNE 17:01:30 10° NW
CZ-4C R/B 3.7 16:51:31 10° NNW 16:57:45 31° NE 17:04:51 10° E
Cosmos 1812 4.2 16:56:16 10° SE 16:58:57 18° E 17:01:38 10° NE
Cosmos 1092 Rocket 4.2 16:53:10 10° N 16:59:24 54° ENE 17:05:32 10° SSE
Cosmos 2084 3.5 16:55:20 10° NNW 16:59:40 71° NE 17:04:09 10° SE
NOSS 3-1 (A) 4.2 16:52:39 10° NNW 17:00:19 76° NE 17:09:12 10° SE
ISS -2.2 16:59:42 10° NW 17:02:26 22° NNE 17:04:58 11° ENE
SL-16 R/B 4.0 17:01:18 10° NNE 17:02:30 11° NE 17:03:41 10° NE
SMAP 3.1 16:59:33 10° SSE 17:04:08 60° ENE 17:08:43 10° N
Cosmos 2082 Rocket 2.7 16:59:08 10° S 17:04:24 41° ESE 17:09:41 10° NE
Meteor PRIRODA 4.0 17:01:15 10° S 17:04:52 69° WSW 17:08:29 10° NNW
Meteor 1-25 Rocket 4.2 16:59:28 10° N 17:05:01 65° ENE 17:10:36 10° SSE
Cosmos 1939 Rocket 2.9 17:01:17 10° SSE 17:05:22 67° ENE 17:09:27 10° N
CORIOLIS 4.2 17:01:48 10° SSE 17:07:04 59° ENE 17:12:24 10° N
NOAA 12 4.3 17:04:58 10° S 17:10:18 78° WSW 17:15:39 10° NNW
CZ-4B DEB 4.3 17:08:04 10° SSE 17:13:28 58° ENE 17:18:50 10° N
Cosmos 2278 4.4 17:12:49 10° N 17:17:49 30° NE 17:22:47 10° ESE
AQUARIUS 4.1 17:13:35 10° SSE 17:18:03 71° ENE 17:22:31 10° N
Cosmos 1602 3.6 17:14:36 10° N 17:18:27 67° E 17:22:17 10° SSE
Cosmos 540 Rocket 3.4 17:14:18 10° SSW 17:19:23 84° ESE 17:24:31 10° NNE
Cosmos 1627 Rocket 4.4 17:14:43 10° N 17:20:52 67° E 17:26:55 10° SSE
Radarsat 4.5 17:17:18 10° SSE 17:22:29 79° ENE 17:27:41 10° N
ARGOS 3.9 17:19:04 10° SE 17:23:45 31° ENE 17:28:25 10° N
Cosmos 2279 Rocket 4.3 17:18:35 10° SSE 17:24:23 43° E 17:30:11 10° NNE
COSMOS 2406 3.4 17:19:19 10° SSW 17:25:03 81° WNW 17:30:50 10° NNE
Cosmos 1833 Rocket 3.2 17:20:52 10° SW 17:26:24 61° WNW 17:32:00 10° NNE
COSMO-SKYMED 1 3.2 17:23:44 10° NNE 17:27:43 34° E 17:31:38 10° SSE
Cosmos 1782 2.7 17:23:53 10° S 17:27:52 76° E 17:31:52 10° N
Cosmos 1814 Rocket 4.3 17:23:59 10° S 17:28:57 46° ESE 17:33:45 11° NNE
ATLAS 5 CENTAUR R/B 3.6 17:26:33 10° NNW 17:31:37 19° N 17:33:08 16° NE
Meteor 2-21 4.4 17:25:47 10° N 17:31:52 71° E 17:37:52 10° SSE
Cosmos 921 Rocket 4.3 17:29:25 10° SE 17:32:22 19° E 17:32:43 19° E
CZ-2C R/B 3.6 17:30:53 10° S 17:33:03 14° SSE 17:35:11 10° SE
Cosmos 1633 Rocket 3.6 17:32:22 10° N 17:36:24 35° ENE 17:40:26 10° SE
CZ-2D R/B 3.1 17:35:02 10° SSE 17:38:51 75° ENE 17:42:41 10° N
Cosmos 1898 Rocket 4.1 17:35:23 10° NNW 17:40:33 59° WSW 17:45:38 10° S
Cosmos 1634 Rocket 4.1 17:34:56 10° S 17:41:15 87° W 17:47:37 10° N
COSMOS 2455 2.9 17:36:20 10° SSW 17:42:21 82° WNW 17:48:14 11° NNE
PAYLOAD B 4.2 17:37:39 10° SSE 17:43:15 81° ENE 17:48:52 10° NNW
CZ-4B R/B 3.2 17:40:30 10° SSE 17:45:49 58° ENE 17:51:04 10° N
Cosmos 1151 Rocket 2.9 17:42:36 10° S 17:46:52 64° E 17:51:11 10° NNE
CZ-2C R/B 2.6 17:42:05 10° NNE 17:47:14 58° E 17:52:18 10° S
Cosmos 1500 3.1 17:44:13 10° N 17:47:58 82° W 17:51:40 10° S
Cosmos 2026 Rocket 4.1 17:43:31 10° N 17:49:39 77° W 17:55:41 10° S
Okean O Rocket 1.8 17:45:41 10° SE 17:49:56 46° ENE 17:54:12 10° N
X-37B 3.0 17:50:09 10° SSE 17:50:13 10° SSE 17:50:13 10° SSE
Lacrosse 5 rocket 2.9 17:47:55 10° NNW 17:50:36 19° NNE 17:50:36 19° NNE
Cosmos 2208 Rocket 4.1 17:52:49 10° S 17:58:05 59° ESE 18:01:39 21° NNE
CZ-4C R/B 4.3 18:00:22 24° SE 18:00:22 24° SE 18:02:08 10° SSE
GPS 2-04 Rocket1 4.2 17:55:34 10° WSW 17:59:14 31° S 18:01:28 19° SE
CZ-4 R/B 4.5 17:55:14 10° SSE 17:59:15 54° ENE 18:03:17 10° N
Meteor 1-10 Rocket 4.5 17:55:38 10° SSE 18:01:07 46° E 18:04:53 19° NNE
H-2A R/B 2.2 17:56:46 10° S 18:01:58 75° WSW 18:07:03 10° NNW
Cosmos 1666 Rocket 3.4 17:57:50 10° N 18:02:18 85° E 18:06:42 10° S
NOSS 2-2 (C) 4.5 17:57:44 10° NW 18:03:15 86° ENE 18:11:01 10° SE
Cosmos 1328 Rocket 3.4 17:59:58 10° S 18:04:23 71° E 18:07:30 19° NNE
Meteor 1-11 Rocket 4.3 17:59:18 10° N 18:04:24 34° ENE 18:09:33 10° SE
Cosmos 1470 Rocket 3.9 18:01:16 10° N 18:05:31 43° ENE 18:09:46 10° SSE
USA 267 4.3 18:01:04 16° NNE 18:05:40 37° NNW 18:11:32 10° W
Cosmos 1655 Rocket 4.2 18:01:33 10° N 18:07:45 49° ENE 18:13:51 10° SSE
Cosmos 2360 Rocket 4.2 18:06:18 10° N 18:07:09 12° NNE 18:07:09 12° NNE
Landsat 5 3.2 18:08:42 36° NNE 18:10:15 70° ESE 18:14:12 10° S
Cosmos 2180 Rocket 4.4 18:06:42 10° S 18:13:02 81° E 18:19:21 10° N
Feng Yun 1-1 Rocket 4.4 18:09:28 10° SSE 18:15:14 57° ENE 18:20:59 10° N
SKYMED 2 3.8 18:12:01 13° N 18:15:51 70° WNW 18:20:09 10° SSW
Meteor 2-8 Rocket 4.3 18:10:29 10° S 18:16:37 84° E 18:22:49 10° N
Cosmos 1666 2.9 18:13:44 10° NNW 18:17:25 66° W 18:21:05 10° S
ATLAS CENTAUR R/B 3.9 18:10:31 10° WSW 18:18:14 31° NW 18:20:44 19° N
Cosmos 1125 Rocket 4.2 18:18:41 10° N 18:22:14 35° NNE 18:22:14 35° NNE
SL-24 R/B - RUBIN 2 4.2 18:22:54 10° NW 18:27:14 54° WSW 18:31:04 12° SSE
Cosmos 2322 Rocket 3.5 18:24:55 10° N 18:27:49 25° NNE 18:27:49 25° NNE
SL-08 RB Rocket 3.6 18:28:29 10° SSE 18:33:08 89° WSW 18:37:47 10° NNW
Cosmos 1980 Rocket 3.1 18:30:33 10° NW 18:35:58 48° WSW 18:41:20 10° S
USA 234 4.0 18:31:52 10° SSE 18:38:12 51° SW 18:44:33 10° NW
ISS -1.9 18:36:12 10° NW 18:37:58 28° WNW 18:37:58 28° WNW
Cosmos 1515 Rocket 3.8 18:42:11 10° SSW 18:46:04 64° SW 18:46:04 64° SW
CZ-4C R/B 3.1 18:39:32 10° NW 18:47:02 79° WSW 18:55:37 10° SSE
SL-16 R/B 2.8 18:42:16 10° NNW 18:46:11 42° N 18:46:11 42° N
Cosmos 2082 Rocket 3.8 18:43:37 10° WSW 18:48:34 30° NW 18:52:35 14° N
Cosmos 44 Rocket 4.1 18:49:50 10° NNW 18:53:09 43° NNW 18:53:09 43° NNW
Meteor 1-27 Rocket 4.1 19:02:20 10° SSW 19:06:41 56° SSW 19:06:41 56° SSW
DMSP B5D2-2 4.5 19:10:16 60° W 19:10:16 60° W 19:15:02 10° SSW
CZ-2C R/B 3.8 19:08:25 10° SW 19:09:35 16° SW 19:09:35 16° SW
Cosmos 1818 4.4 19:15:22 10° NW 19:19:33 47° WNW 19:19:33 47° WNW
Okean O Rocket 4.4 19:23:40 10° SW 19:26:30 17° W 19:29:21 10° NW
BREEZE-M DEB (TANK) 4.4 19:21:39 10° WSW 19:44:41 71° NW 19:44:57 70° NNW
